Regional Weather Roundup
Issued by NWS Green Bay, WI

Home | Current Version | Previous Version | Graphics & Text | Print | Product List | Glossary Off
Versions: 1 2 3 4 5 6 7 8 9 10 11 12 13 14 15 16 17 18 19 20 21 22 23 24 25 26 27 28 29 30 31 32 33 34 35 36 37 38 39 40 41 42 43 44 45 46 47 48 49 50

000
ASUS43 KGRB 020800
RWRGRB

NORTH-CENTRAL AND NORTHEAST WISCONSIN REGIONAL WEATHER ROUNDUP
NATIONAL WEATHER SERVICE GREEN BAY WI
300 AM CDT WED SEP 02 2015

WIZ005-009-010>012-018-019-020900-
NORTH CENTRAL WISCONSIN

CITY           SKY/WX    TMP DP  RH WIND       PRES   REMARKS
IRONWOOD         N/A     64  63  94 CALM      29.93S VSB 1/2
MANITOWISH WTR NOT AVBL
ARBOR VITAE    NOT AVBL
EAGLE RIVER    NOT AVBL
LAND O LAKES   NOT AVBL
RHINELANDER    MOCLDY    68  66  93 CALM      30.00S FOG
PHILLIPS       CLOUDY    69  68  99 CALM      29.97F
ANTIGO         NOT AVBL
TOMAHAWK       NOT AVBL
MERRILL        FOG       65  65 100 CALM      29.98F VSB 1/4
$$

WIZ013-073-020900-
NORTHEAST WISCONSIN

CITY           SKY/WX    TMP DP  RH WIND       PRES   REMARKS
IRON MOUNTAIN  FOG       65  63  93 CALM      29.96R VSB 1/2
MARINETTE      PTCLDY    72  68  88 W3        29.93S
$$

WIZ017-030-035>037-045-020900-
CENTRAL WISCONSIN

CITY           SKY/WX    TMP DP  RH WIND       PRES   REMARKS
MEDFORD        NOT AVBL
WAUSAU         PTCLDY    72  71  97 S3        29.96F FOG
MOSINEE        NOT AVBL
MARSHFIELD     FOG       70  67  90 CALM      29.97F VSB 1/4
WISC RAPIDS    CLEAR     71  69  93 S3        29.99S FOG
STEVENS POINT  NOT AVBL
WAUPACA        NOT AVBL
SHAWANO        NOT AVBL
CLINTONVILLE   FOG       68  66  94 CALM      29.96F VSB 3/4
WAUTOMA        PTCLDY    70  70 100 CALM      29.98F FOG
$$

WIZ038-039-048-051-020900-
FOX VALLEY

CITY           SKY/WX    TMP DP  RH WIND       PRES   REMARKS
NWS GREEN BAY  PTCLDY    70  69  97 S3        29.96S FOG
APPLETON       NOT AVBL
OSHKOSH        PTCLDY    73  70  90 S6        29.97S FOG
FOND DU LAC    PTCLDY    73  71  93 S5        29.98S
$$

WIZ022-050-052-020900-
EAST CENTRAL WISCONSIN

CITY           SKY/WX    TMP DP  RH WIND       PRES   REMARKS
EPHRAIM        FAIR      73  71  91 W6        29.94S
STURGEON BAY   PTCLDY    73  70  88 SW5       29.97S
MANITOWOC      NOT AVBL
SHEBOYGAN      CLEAR     72  70  93 CALM      29.97F
$$

LMZ563-521-522-541>543-020900-
LAKESHORE

STATION/POSITION TIME  TEMP    WIND        PRES    VSBY  WAVE
                       AIR SEA DIR/SP/G                  HT/PER
                 (UTC) (F)     (DEG/KT/KT) (MB)    (MI)  (FT/S)
SHEBOYGAN LKSHOR 0700   69     170/  5/  5 1015.0F
KEWAUNEE LKSHORE 0700   54     160/  3/  4 1013.5F
ALGOMA MARINA    0714             CALM       N/A
NORTHPORT PIER   0700   65      CALM  /  2 1013.9F
N MID LAKE BUOY  0650   66 65  200/ 10/ 12 1013.6F         2/ 4
S GREEN BAY BUOY 0730   70 67  210/  8/  8 1015.6F
SISTER BAY LKSHO 0719   71        CALM       N/A
CHAMBERS ISLAND  0700   73     190/  5/  9 1013.9F
MENOMINEE LKSHOR 0700   67     190/  3/  4 1012.8F
$$



USA.gov is the U.S. government's official web portal to all federal, state and local government web resources and services.